Toronto Pearson, Ontario

12:20 PM EST on December 15, 2017 (GMT -0500)
Toronto-Pearson International

Weather History for CYYZ - October, 2011

Change the Weather History Date:

Thursday, October 20, 2011

  Actual Average Record
Temperature  
Mean Temperature 50 °F -  
Max Temperature 53 °F 49 °F 73 °F (2000)
Min Temperature 46 °F 33 °F 33 °F (2005)
Degree Days  
Heating Degree Days 16    
Moisture  
Dew Point 46 °F    
Average Humidity 86    
Maximum Humidity 100    
Minimum Humidity 71    
Precipitation  
Precipitation 0.63 in 0.09 in - ()
Sea Level Pressure  
Sea Level Pressure 29.29 in    
Wind  
Wind Speed 13 mph ()    
Max Wind Speed 23 mph    
Max Gust Speed 36 mph    
Visibility 11.7 miles    
Events Rain    
Averages and records for this station are not official NWS values.
T = Trace of Precipitation, MM = Missing Value Source: Averaged Metar Reports

Daily Weather History Graph

Daily Weather History Graph

Search for Another Location

Airport or City:

Trip Planner

Search our weather history database for the weather conditions in past years. The results will help you decide how hot, cold, wet, or windy it might be!

Date:

Astronomy

Oct. 20, 2011 Rise Set
Actual Time 7:38 AM EDT 6:27 PM EDT
Civil Twilight 7:09 AM EDT 6:56 PM EDT
Nautical Twilight 6:36 AM EDT 7:29 PM EDT
Astronomical Twilight 6:02 AM EDT 8:02 PM EDT
Moon 12:08 AM EDT (10/20) 2:47 PM EDT (10/20)
Length of Visible Light 11h 47m
Length of Day
10h 48m
Last Quarter, 44% of the Moon is Illuminated
Oct 20
Last Quarter
Oct 26
New
Nov 2
First Quarter
Nov 10
Full
Nov 18
Last Quarter

Hourly Weather History & Observations

Time (EDT) Temp. Windchill Dew Point Humidity Pressure Visibility Wind Dir Wind Speed Gust Speed Precip Events Conditions
12:00 AM 51.8 °F - 51.8 °F 100% 29.36 in 4.0 mi ENE 8.1 mph 24.2 mph N/A Rain Light Rain
1:00 AM 53.6 °F - 51.8 °F 94% 29.32 in 6.0 mi ENE 19.6 mph 35.7 mph N/A Rain Light Rain
2:00 AM 53 °F - 51 °F 89% 29.27 in 6 mi East 19.6 mph - - Rain Light Rain
3:00 AM 53.6 °F - 50.0 °F 88% 29.24 in 6.0 mi East 23.0 mph 32.2 mph N/A Rain Light Rain
3:23 AM 51.8 °F - - N/A% - 4.0 mi East 20.7 mph 31.1 mph N/A Rain Heavy Rain
4:00 AM 51.8 °F - 50.0 °F 94% 29.21 in 5.0 mi East 21.9 mph 28.8 mph N/A Rain Light Rain
5:00 AM 51.8 °F - 50.0 °F 94% 29.22 in 4.0 mi East 11.5 mph 20.7 mph N/A Rain Light Rain
6:00 AM 51.8 °F - 50.0 °F 94% 29.20 in 6.0 mi ESE 17.3 mph - N/A Rain Light Rain
7:00 AM 50.0 °F - 50.0 °F 100% 29.18 in 6.0 mi ESE 10.4 mph - N/A Rain Light Rain
7:28 AM 50.0 °F - - N/A% - 6.0 mi SSE 9.2 mph - N/A Rain Light Rain
8:00 AM 52 °F - 51 °F 95% 29.18 in 10 mi SSE 4.6 mph - - Rain Light Rain
8:36 AM 51.8 °F - - N/A% - 12.0 mi SW 18.4 mph 25.3 mph N/A Rain Light Rain
9:00 AM 50.0 °F - 48.2 °F 94% 29.21 in 15.0 mi SW 17.3 mph 24.2 mph N/A Rain Light Rain
10:00 AM 51.8 °F - 46.4 °F 82% 29.22 in 15.0 mi SSW 11.5 mph 18.4 mph N/A   Overcast
11:00 AM 51.8 °F - 46.4 °F 82% 29.23 in 15.0 mi SSW 13.8 mph 20.7 mph N/A   Overcast
12:00 PM 51.8 °F - 44.6 °F 76% 29.25 in 15.0 mi SSW 23.0 mph 31.1 mph N/A   Overcast
2:00 PM 50 °F - 44 °F 71% 29.26 in 15 mi SSW 18.4 mph - -   Partly Cloudy
2:00 PM 50.0 °F - 42.8 °F 76% 29.26 in 15.0 mi SSW 16.1 mph 23.0 mph N/A   Overcast
2:38 PM 50.0 °F - - N/A% - 15.0 mi SSW 17.3 mph 23.0 mph N/A Rain Light Rain Showers
3:00 PM 50.0 °F - 44.6 °F 82% 29.28 in 15.0 mi SSW 18.4 mph 24.2 mph N/A Rain Light Rain Showers
4:00 PM 50.0 °F - 42.8 °F 76% 29.30 in 15.0 mi SSW 10.4 mph 19.6 mph N/A Rain Light Rain Showers
4:12 PM 50.0 °F - - N/A% - 15.0 mi SSW 12.7 mph 19.6 mph N/A   Overcast
5:00 PM 50.0 °F - 42.8 °F 76% 29.33 in 15.0 mi SSW 10.4 mph - N/A   Overcast
5:35 PM 50.0 °F - - N/A% - 15.0 mi SSW 10.4 mph - N/A Rain Light Rain Showers
6:00 PM 50.0 °F - 41.0 °F 71% 29.36 in 15.0 mi SSW 6.9 mph 17.3 mph N/A Rain Light Rain Showers
6:33 PM 48.2 °F - - N/A% - 15.0 mi SW 9.2 mph - N/A   Overcast
7:00 PM 48.2 °F - 41.0 °F 76% 29.37 in 15.0 mi South 10.4 mph - N/A   Mostly Cloudy
8:00 PM 47 °F - 42 °F 78% 29.40 in 15 mi South 6.9 mph - -   Partly Cloudy
8:00 PM 46.4 °F 43.5 °F 42.8 °F 87% 29.40 in 15.0 mi South 5.8 mph - N/A   Mostly Cloudy
9:00 PM 46.4 °F 44.3 °F 42.8 °F 87% 29.41 in 15.0 mi SSE 4.6 mph - N/A   Mostly Cloudy
10:00 PM 46.4 °F 45.2 °F 42.8 °F 87% 29.42 in 15.0 mi SE 3.5 mph - N/A   Mostly Cloudy
11:00 PM 46.4 °F - 44.6 °F 93% 29.44 in 15.0 mi South 2.3 mph - N/A   Mostly Cloudy